Regional Weather Roundup
Issued by NWS Charleston, SC

Current Version | Previous Version | Text Only | Print | Product List | Glossary Off
Versions: 1 2 3 4 5 6 7 8 9 10 11 12 13 14 15 16 17 18 19 20 21 22 23 24 25 26 27 28 29 30 31 32 33 34 35 36 37 38 39 40 41 42 43 44 45 46 47 48 49 50
000 ASUS42 KCHS 221012 RWRCHS REGIONAL WEATHER ROUNDUP NATIONAL WEATHER SERVICE CHARLESTON SC 500 AM EST SUN JAN 22 2017 NOTE: "FAIR" INDICATES FEW OR NO CLOUDS BELOW 12,000 FEET WITH NO SIGNIFICANT WEATHER AND/OR OBSTRUCTIONS TO VISIBILITY. NOT ALL STATIONS ARE QUALITY CONTROLLED. USE DATA WITH CAUTION... ESPECIALLY DEWPOINT OBSERVATIONS. SCZ027-030-031-034>040-042>050-221100- ...SOUTHEAST SOUTH CAROLINA... CITY SKY/WX TMP DP RH WIND PRES REMARKS N CHARLESTON RAIN 63 60 90 W5 29.70R FOG WATERFRONT PRK N/A 63 62 97 SW10 29.69S MOUNT PLEASANT RAIN 63 63 100 SW7 29.71R JOHNS ISLAND TSTM 63 63 100 SW8 29.69F PINOPOLIS N/A 61 61 100 W10 29.60F MONCKS CORNER RAIN 61 59 94 W3 29.70R SUMMERVILLE RAIN N/A N/A N/A S3 29.72R BEAUFORT MCAS TSTM 63 62 97 S7 29.67F FOG BEAUFORT ARPT TSTM 61 61 100 S5 29.67F HILTON HEAD IS RAIN 61 61 100 CALM 29.66F WALTERBORO HVY RAIN 61 61 100 SW5 29.68F ALLENDALE RAIN 61 61 100 NW3 29.65F ...SOUTHERN MIDLANDS AND PEE DEE... CITY SKY/WX TMP DP RH WIND PRES REMARKS GEORGETOWN LGT RAIN 59 59 100 W6 29.70S KINGSTREE CLOUDY 59 55 88 CALM 29.69F ORANGEBURG RAIN 59 59 100 CALM 29.69S BARNWELL LGT RAIN 61 61 100 E7 29.63F AIKEN RAIN 57 55 94 E6 29.66F MANNING RAIN 59 55 88 SW5 29.70S COLUMBIA RAIN 60 58 92 SE5 29.66F SUMTER LGT RAIN 60 57 92 W13 29.65F FLORENCE CLOUDY 61 58 90 W9 29.68R MYRTLE BEACH CLOUDY 61 55 82 W8 29.71R N MYRTLE BEACH CLOUDY 59 58 96 W6 29.69R $$ GAZ063-065-086>088-099>101-113>116-118-119-134>141-150-221100- ...SOUTHEAST GEORGIA... CITY SKY/WX TMP DP RH WIND PRES REMARKS SAVANNAH ARPT LGT RAIN 62 59 90 N7 29.67R HUNTER AAF CLOUDY 62 62 100 VRB3 29.64F FORT STEWART TSTM 64 61 91 NW7 29.64R STATESBORO TSTM 63 32 31 E3 29.64S SYLVANIA TSTM N/A N/A N/A S5 29.66F CLAXTON RAIN N/A N/A N/A E6 29.64F ...CSRA...CENTRAL AND FAR SOUTHEAST GEORGIA... CITY SKY/WX TMP DP RH WIND PRES REMARKS THOMSON N/A 61 61 100 CALM 29.70R AUGUSTA-BUSH HVY RAIN 61 59 93 W3 29.63F FOG AUGUSTA-DANIEL HVY RAIN 60 57 89 VRB3 29.64F FOG SWAINSBORO RAIN 61 61 100 SE8 29.63R VIDALIA CLOUDY 63 63 100 E9 29.62F EASTMAN CLOUDY 63 63 100 NW10 29.70R HAZLEHURST CLOUDY 64 64 100 E7 29.58F ALMA TSTM 66 66 100 CALM 29.58F VSB 1/4 WAYCROSS CLOUDY 70 70 100 S20G26 29.59F JESUP FAIR 68 63 83 S8G17 29.62R BAXLEY CLOUDY 68 68 100 S8 29.61R BRUNSWICK MOCLDY 68 64 88 S13G20 29.64F SAINT SIMONS CLOUDY 65 62 90 S12G20 29.64F $$ SCZ027-028-034-036>038-045-046-048>050-GAZ119-141-221100- ...LAKE AND SUPPLEMENTAL COASTAL OBSERVATIONS... STATION/POSITION TIME TEMP WIND PRES WAVE SWELL AIR SEA DIR/SP/G HT/PER HT/PER/DIR (UTC) (F) (DEG/KT/KT) (MB) (FT/S) (FT/S/D) WINYAH BAY 0845 60 270/ 4 1005.0 LAKE MURRAY 0920 59 180/ 4/ 4 1004.1F ACE BASIN NERRS 0845 62 300/ 1 1006.0 FORT PULASKI 0948 60 58 100/ 7/ 8 1004.1F SAPELO ISLAND 0900 64 180/ 14 1004.0 $$ ANZ835-935-AMZ111-154-330-350-352-354-370-450-454-472-221100- ...C-MAN AND BUOY OBSERVATIONS... STATION/POSITION TIME TEMP WIND PRES WAVE SWELL AIR SEA DIR/SP/G HT/PER HT/PER/DIR (UTC) (F) (DEG/KT/KT) (MB) (FT/S) (FT/S/D) BUOY 41004 0850 69 68 240/ 16/ 19 1005.2 4/ 6 2/100/11 BUOY 41008 0950 66 62 180/ 19/ 23 1003.2F 3/ 5 2/ 50/12 FOLLY BEACH CMAN 0900 63 230/ 9/ 12 1006.1F CAPERS NEARSHORE 0908 60 56 270/ 16/ 21 1005.5F FRIPP NEARSHORE 0908 60 59 210/ 6/ 12 1005.0F STATION/POSITION TIME TEMP WIND PRES WAVE SWELL AIR SEA DIR/SP/G HT/PER HT/PER/DIR (UTC) (F) (DEG/KT/KT) (MB) (FT/S) (FT/S/D) 5E ST. MARYS GA 0930 63 N/A 4/ 4 2/100/11 FRYING PAN BUOY 0950 67 71 260/ 17/ 19 1005.4R 6/ 7 2/120/11 BUOY 41025 0950 67 73 260/ 23/ 29 1003.4S 6/ 6 3/ 90/11 CAPE LOOKOUT NC 0900 60 250/ 12/ 16 1004.2S BUOY 41002 0950 72 71 190/ 21/ 25 1006.8F 7/ 6 2/ 80/14 BUOY 41010 NOT AVBL ST AUGUSTINE FL 1000 69 64 200/ 9/ 11 1006.8S $$

USA.gov is the U.S. government's official web portal to all federal, state and local government web resources and services.